Time,TemperatureF,DewpointF,PressureIn,WindDirection,WindDirectionDegrees,WindSpeedMPH,WindSpeedGustMPH,Humidity,HourlyPrecipIn,Conditions,Clouds,dailyrainin,SoftwareType,DateUTC
2013-04-19 00:14:00,46.4,31.1,30.16,SW,225,0.0,-999.0,55,-99.99,,,0.00,Acu-Link.com,2013-04-19 07:14:00,
2013-04-19 00:29:00,46.6,31.3,30.15,SW,225,0.0,-999.0,55,-99.99,,,0.00,Acu-Link.com,2013-04-19 07:29:00,
2013-04-19 00:44:00,46.0,30.7,30.16,SW,225,0.0,-999.0,55,-99.99,,,0.00,Acu-Link.com,2013-04-19 07:44:00,
2013-04-19 00:59:00,44.6,29.9,30.16,SW,225,2.2,-999.0,56,-99.99,,,0.00,Acu-Link.com,2013-04-19 07:59:00,
2013-04-19 01:15:00,45.9,31.5,30.16,SW,225,2.2,-999.0,57,-99.99,,,0.00,Acu-Link.com,2013-04-19 08:15:00,
2013-04-19 01:30:00,45.9,31.1,30.15,SW,225,1.7,-999.0,56,-99.99,,,0.00,Acu-Link.com,2013-04-19 08:30:00,
2013-04-19 01:45:00,45.0,30.3,30.15,SW,225,1.1,-999.0,56,-99.99,,,0.00,Acu-Link.com,2013-04-19 08:45:00,
2013-04-19 02:00:00,44.6,29.9,30.15,SW,225,1.7,-999.0,56,-99.99,,,0.00,Acu-Link.com,2013-04-19 09:00:00,
2013-04-19 02:15:00,45.0,30.3,30.15,SW,225,1.7,-999.0,56,-99.99,,,0.00,Acu-Link.com,2013-04-19 09:15:00,
2013-04-19 02:31:00,44.6,29.9,30.15,SW,225,1.1,-999.0,56,-99.99,,,0.00,Acu-Link.com,2013-04-19 09:31:00,
2013-04-19 02:46:00,44.8,30.5,30.15,SW,225,0.0,-999.0,57,-99.99,,,0.00,Acu-Link.com,2013-04-19 09:46:00,
2013-04-19 03:01:00,44.4,30.1,30.15,SW,225,2.2,-999.0,57,-99.99,,,0.00,Acu-Link.com,2013-04-19 10:01:00,
2013-04-19 03:16:00,44.8,30.5,30.14,SW,225,1.7,-999.0,57,-99.99,,,0.00,Acu-Link.com,2013-04-19 10:16:00,
2013-04-19 03:31:00,45.9,31.1,30.14,SW,225,0.0,-999.0,56,-99.99,,,0.00,Acu-Link.com,2013-04-19 10:31:00,
2013-04-19 03:47:00,45.9,30.7,30.14,SW,225,0.0,-999.0,55,-99.99,,,0.00,Acu-Link.com,2013-04-19 10:47:00,
2013-04-19 04:02:00,45.5,30.3,30.14,SW,225,0.0,-999.0,55,-99.99,,,0.00,Acu-Link.com,2013-04-19 11:02:00,
2013-04-19 04:17:00,45.3,30.1,30.14,SW,225,1.1,-999.0,55,-99.99,,,0.00,Acu-Link.com,2013-04-19 11:17:00,
2013-04-19 04:32:00,46.8,31.0,30.14,SW,225,2.2,-999.0,54,-99.99,,,0.00,Acu-Link.com,2013-04-19 11:32:00,
2013-04-19 04:47:00,47.1,30.9,30.13,SW,225,2.2,-999.0,53,-99.99,,,0.00,Acu-Link.com,2013-04-19 11:47:00,
2013-04-19 05:03:00,46.6,30.4,30.13,SW,225,2.7,-999.0,53,-99.99,,,0.00,Acu-Link.com,2013-04-19 12:03:00,
2013-04-19 05:18:00,46.9,30.7,30.14,SW,225,1.7,-999.0,53,-99.99,,,0.00,Acu-Link.com,2013-04-19 12:18:00,
2013-04-19 05:33:00,45.9,29.3,30.14,SW,225,1.7,-999.0,52,-99.99,,,0.00,Acu-Link.com,2013-04-19 12:33:00,
2013-04-19 05:48:00,45.3,29.2,30.14,SW,225,2.2,-999.0,53,-99.99,,,0.00,Acu-Link.com,2013-04-19 12:48:00,
2013-04-19 06:04:00,45.1,29.0,30.14,SW,225,2.7,-999.0,53,-99.99,,,0.00,Acu-Link.com,2013-04-19 13:04:00,
2013-04-19 06:19:00,44.6,29.0,30.14,SW,225,1.7,-999.0,54,-99.99,,,0.00,Acu-Link.com,2013-04-19 13:19:00,
2013-04-19 06:34:00,44.2,29.1,30.15,SW,225,2.2,-999.0,55,-99.99,,,0.00,Acu-Link.com,2013-04-19 13:34:00,
2013-04-19 06:49:00,44.4,29.7,30.15,SW,225,0.0,-999.0,56,-99.99,,,0.00,Acu-Link.com,2013-04-19 13:49:00,
2013-04-19 07:04:00,46.2,31.4,30.15,SW,225,1.1,-999.0,56,-99.99,,,0.00,Acu-Link.com,2013-04-19 14:04:00,
2013-04-19 07:20:00,47.1,32.2,30.16,SW,225,0.0,-999.0,56,-99.99,,,0.00,Acu-Link.com,2013-04-19 14:20:00,
2013-04-19 07:35:00,49.6,33.6,30.16,SW,225,0.0,-999.0,54,-99.99,,,0.00,Acu-Link.com,2013-04-19 14:35:00,
2013-04-19 07:50:00,53.1,35.9,30.16,SW,225,0.0,-999.0,52,-99.99,,,0.00,Acu-Link.com,2013-04-19 14:50:00,
2013-04-19 08:05:00,58.6,39.0,30.16,SW,225,0.0,-999.0,48,-99.99,,,0.00,Acu-Link.com,2013-04-19 15:05:00,
2013-04-19 08:20:00,65.3,42.2,30.16,SW,225,1.1,-999.0,43,-99.99,,,0.00,Acu-Link.com,2013-04-19 15:20:00,
2013-04-19 08:36:00,69.8,43.7,30.16,SW,225,1.7,-999.0,39,-99.99,,,0.00,Acu-Link.com,2013-04-19 15:36:00,
2013-04-19 08:51:00,72.0,44.3,30.16,SW,225,1.1,-999.0,37,-99.99,,,0.00,Acu-Link.com,2013-04-19 15:51:00,
2013-04-19 09:06:00,74.5,45.8,30.16,SE,135,1.7,-999.0,36,-99.99,,,0.00,Acu-Link.com,2013-04-19 16:06:00,
2013-04-19 09:21:00,79.3,48.5,30.15,NW,315,0.0,-999.0,34,-99.99,,,0.00,Acu-Link.com,2013-04-19 16:21:00,
2013-04-19 09:36:00,76.6,43.7,30.15,NW,315,2.7,-999.0,31,-99.99,,,0.00,Acu-Link.com,2013-04-19 16:36:00,
2013-04-19 09:52:00,77.5,43.6,30.14,NW,315,1.1,-999.0,30,-99.99,,,0.00,Acu-Link.com,2013-04-19 16:52:00,
2013-04-19 10:07:00,78.1,43.2,30.14,SSW,202,2.2,-999.0,29,-99.99,,,0.00,Acu-Link.com,2013-04-19 17:07:00,
2013-04-19 10:22:00,79.9,43.9,30.14,SW,225,3.7,-999.0,28,-99.99,,,0.00,Acu-Link.com,2013-04-19 17:22:00,
2013-04-19 10:37:00,82.0,44.7,30.14,West,270,3.2,-999.0,27,-99.99,,,0.00,Acu-Link.com,2013-04-19 17:37:00,
2013-04-19 10:53:00,82.8,44.4,30.13,South,180,4.7,-999.0,26,-99.99,,,0.00,Acu-Link.com,2013-04-19 17:53:00,
2013-04-19 11:08:00,83.1,44.6,30.12,South,180,3.2,-999.0,26,-99.99,,,0.00,Acu-Link.com,2013-04-19 18:08:00,
2013-04-19 11:23:00,81.7,43.5,30.12,SSE,157,6.8,-999.0,26,-99.99,,,0.00,Acu-Link.com,2013-04-19 18:23:00,
2013-04-19 11:38:00,81.5,47.1,30.11,SSW,202,4.7,-999.0,30,-99.99,,,0.00,Acu-Link.com,2013-04-19 18:38:00,
2013-04-19 11:53:00,82.0,47.5,30.10,WSW,247,5.3,-999.0,30,-99.99,,,0.00,Acu-Link.com,2013-04-19 18:53:00,
2013-04-19 12:09:00,79.9,47.4,30.09,SSW,202,7.3,-999.0,32,-99.99,,,0.00,Acu-Link.com,2013-04-19 19:09:00,
2013-04-19 12:24:00,79.0,47.4,30.09,SE,135,11.9,-999.0,33,-99.99,,,0.00,Acu-Link.com,2013-04-19 19:24:00,
2013-04-19 12:39:00,81.0,50.0,30.09,West,270,7.3,-999.0,34,-99.99,,,0.00,Acu-Link.com,2013-04-19 19:39:00,
2013-04-19 12:54:00,81.9,49.9,30.07,South,180,7.3,-999.0,33,-99.99,,,0.00,Acu-Link.com,2013-04-19 19:54:00,
2013-04-19 13:09:00,81.5,48.8,30.05,South,180,7.3,-999.0,32,-99.99,,,0.00,Acu-Link.com,2013-04-19 20:09:00,
2013-04-19 13:25:00,80.8,47.3,30.03,SSW,202,10.4,-999.0,31,-99.99,,,0.00,Acu-Link.com,2013-04-19 20:25:00,
2013-04-19 13:40:00,81.3,47.8,30.03,SSW,202,9.9,-999.0,31,-99.99,,,0.00,Acu-Link.com,2013-04-19 20:40:00,
2013-04-19 13:55:00,82.2,46.8,30.01,SW,225,7.3,-999.0,29,-99.99,,,0.00,Acu-Link.com,2013-04-19 20:55:00,
2013-04-19 14:10:00,80.6,45.4,30.01,South,180,7.3,-999.0,29,-99.99,,,0.00,Acu-Link.com,2013-04-19 21:10:00,
2013-04-19 14:25:00,80.4,44.3,30.01,SSE,157,5.8,-999.0,28,-99.99,,,0.00,Acu-Link.com,2013-04-19 21:25:00,
2013-04-19 14:41:00,80.4,44.3,30.01,SSE,157,7.3,-999.0,28,-99.99,,,0.00,Acu-Link.com,2013-04-19 21:41:00,
2013-04-19 14:56:00,80.6,43.5,30.01,South,180,7.3,-999.0,27,-99.99,,,0.00,Acu-Link.com,2013-04-19 21:56:00,
2013-04-19 15:11:00,79.0,42.1,29.99,SSE,157,10.4,-999.0,27,-99.99,,,0.00,Acu-Link.com,2013-04-19 22:11:00,
2013-04-19 15:26:00,78.1,41.4,29.99,SSW,202,8.3,-999.0,27,-99.99,,,0.00,Acu-Link.com,2013-04-19 22:26:00,
2013-04-19 15:42:00,77.4,40.8,29.98,South,180,6.3,-999.0,27,-99.99,,,0.00,Acu-Link.com,2013-04-19 22:42:00,
2013-04-19 15:57:00,79.9,42.9,29.99,SW,225,7.3,-999.0,27,-99.99,,,0.00,Acu-Link.com,2013-04-19 22:57:00,
2013-04-19 16:12:00,77.9,41.2,29.98,SSW,202,7.8,-999.0,27,-99.99,,,0.00,Acu-Link.com,2013-04-19 23:12:00,
2013-04-19 16:27:00,77.7,41.0,29.97,SSW,202,8.9,-999.0,27,-99.99,,,0.00,Acu-Link.com,2013-04-19 23:27:00,
2013-04-19 16:42:00,77.2,40.6,29.98,SW,225,6.8,-999.0,27,-99.99,,,0.00,Acu-Link.com,2013-04-19 23:42:00,
2013-04-19 16:58:00,76.3,40.8,29.97,South,180,4.7,-999.0,28,-99.99,,,0.00,Acu-Link.com,2013-04-19 23:58:00,
2013-04-19 17:13:00,75.7,41.2,29.97,SSW,202,8.3,-999.0,29,-99.99,,,0.00,Acu-Link.com,2013-04-20 00:13:00,
2013-04-19 17:28:00,74.3,41.7,29.97,South,180,7.8,-999.0,31,-99.99,,,0.00,Acu-Link.com,2013-04-20 00:28:00,
2013-04-19 17:43:00,74.1,43.9,29.96,South,180,4.2,-999.0,34,-99.99,,,0.00,Acu-Link.com,2013-04-20 00:43:00,
2013-04-19 17:58:00,73.2,43.9,29.97,SW,225,4.7,-999.0,35,-99.99,,,0.00,Acu-Link.com,2013-04-20 00:58:00,
2013-04-19 18:14:00,72.0,44.3,29.96,SW,225,5.3,-999.0,37,-99.99,,,0.00,Acu-Link.com,2013-04-20 01:14:00,
2013-04-19 18:29:00,70.5,45.0,29.95,South,180,5.8,-999.0,40,-99.99,,,0.00,Acu-Link.com,2013-04-20 01:29:00,
2013-04-19 18:44:00,69.4,44.7,29.95,ESE,112,3.2,-999.0,41,-99.99,,,0.00,Acu-Link.com,2013-04-20 01:44:00,
2013-04-19 18:59:00,68.5,45.1,29.95,SW,225,2.2,-999.0,43,-99.99,,,0.00,Acu-Link.com,2013-04-20 01:59:00,
2013-04-19 19:14:00,67.6,45.5,29.95,SW,225,2.2,-999.0,45,-99.99,,,0.00,Acu-Link.com,2013-04-20 02:14:00,
2013-04-19 19:30:00,66.7,45.3,29.95,SW,225,2.2,-999.0,46,-99.99,,,0.00,Acu-Link.com,2013-04-20 02:30:00,
2013-04-19 19:45:00,65.3,45.1,29.95,SW,225,0.0,-999.0,48,-99.99,,,0.00,Acu-Link.com,2013-04-20 02:45:00,
2013-04-19 20:00:00,64.0,45.0,29.96,SW,225,0.0,-999.0,50,-99.99,,,0.00,Acu-Link.com,2013-04-20 03:00:00,
2013-04-19 20:15:00,62.2,44.9,29.95,SW,225,0.0,-999.0,53,-99.99,,,0.00,Acu-Link.com,2013-04-20 03:15:00,
2013-04-19 20:31:00,61.2,44.9,29.96,SW,225,1.1,-999.0,55,-99.99,,,0.00,Acu-Link.com,2013-04-20 03:31:00,
2013-04-19 20:46:00,60.1,44.8,29.97,SW,225,0.0,-999.0,57,-99.99,,,0.00,Acu-Link.com,2013-04-20 03:46:00,
2013-04-19 21:01:00,59.4,45.1,29.96,SW,225,0.0,-999.0,59,-99.99,,,0.00,Acu-Link.com,2013-04-20 04:01:00,
2013-04-19 21:16:00,57.7,44.3,29.96,SW,225,1.1,-999.0,61,-99.99,,,0.00,Acu-Link.com,2013-04-20 04:16:00,
2013-04-19 21:31:00,57.0,44.5,29.95,SW,225,1.7,-999.0,63,-99.99,,,0.00,Acu-Link.com,2013-04-20 04:31:00,
2013-04-19 21:47:00,56.5,44.5,29.94,SW,225,0.0,-999.0,64,-99.99,,,0.00,Acu-Link.com,2013-04-20 04:47:00,
2013-04-19 22:02:00,55.4,43.8,29.95,SW,225,0.0,-999.0,65,-99.99,,,0.00,Acu-Link.com,2013-04-20 05:02:00,
2013-04-19 22:17:00,54.3,43.2,29.96,SW,225,0.0,-999.0,66,-99.99,,,0.00,Acu-Link.com,2013-04-20 05:17:00,
2013-04-19 22:32:00,53.8,43.1,29.96,SW,225,0.0,-999.0,67,-99.99,,,0.00,Acu-Link.com,2013-04-20 05:32:00,
2013-04-19 22:47:00,53.2,42.9,29.96,SW,225,0.0,-999.0,68,-99.99,,,0.00,Acu-Link.com,2013-04-20 05:47:00,
2013-04-19 23:03:00,52.9,43.0,29.96,SW,225,1.7,-999.0,69,-99.99,,,0.00,Acu-Link.com,2013-04-20 06:03:00,
2013-04-19 23:18:00,52.3,42.8,29.97,SW,225,0.0,-999.0,70,-99.99,,,0.00,Acu-Link.com,2013-04-20 06:18:00,
2013-04-19 23:33:00,51.6,42.1,29.97,SW,225,0.0,-999.0,70,-99.99,,,0.00,Acu-Link.com,2013-04-20 06:33:00,
2013-04-19 23:48:00,50.7,42.0,29.97,SW,225,0.0,-999.0,72,-99.99,,,0.00,Acu-Link.com,2013-04-20 06:48:00,